TimeCST,TemperatureF,Dew PointF,Humidity,Sea Level PressureIn,VisibilityMPH,Wind Direction,Wind SpeedMPH,Gust SpeedMPH,PrecipitationIn,Events,Conditions,WindDirDegrees,DateUTC
12:15 AM,47.5,45.1,92,30.16,10.0,Calm,Calm,-,N/A,,Clear,0,2012-11-08 06:15:00
12:35 AM,51.1,42.8,73,30.16,10.0,ENE,3.5,-,N/A,,Clear,70,2012-11-08 06:35:00
12:55 AM,50.4,43.3,77,30.16,10.0,East,3.5,-,N/A,,Clear,80,2012-11-08 06:55:00
1:15 AM,50.9,43.5,76,30.17,10.0,ENE,3.5,-,N/A,,Clear,70,2012-11-08 07:15:00
1:35 AM,51.1,43.7,76,30.17,10.0,ENE,4.6,-,N/A,,Clear,70,2012-11-08 07:35:00
1:55 AM,50.9,43.7,76,30.17,10.0,Calm,Calm,-,N/A,,Clear,0,2012-11-08 07:55:00
2:15 AM,49.5,43.0,78,30.17,10.0,Calm,Calm,-,N/A,,Clear,0,2012-11-08 08:15:00
2:35 AM,49.6,42.4,76,30.17,10.0,Calm,Calm,-,N/A,,Clear,0,2012-11-08 08:35:00
2:55 AM,48.9,42.4,78,30.17,10.0,Calm,Calm,-,N/A,,Clear,0,2012-11-08 08:55:00
3:15 AM,48.0,42.8,82,30.18,10.0,NE,3.5,-,N/A,,Clear,50,2012-11-08 09:15:00
3:35 AM,47.3,42.4,83,30.17,10.0,Calm,Calm,-,N/A,,Clear,0,2012-11-08 09:35:00
3:55 AM,48.0,42.1,80,30.18,10.0,Calm,Calm,-,N/A,,Clear,0,2012-11-08 09:55:00
4:15 AM,46.9,42.8,86,30.18,10.0,NE,3.5,-,N/A,,Clear,50,2012-11-08 10:15:00
4:35 AM,47.1,42.3,83,30.19,10.0,Calm,Calm,-,N/A,,Clear,0,2012-11-08 10:35:00
4:55 AM,46.6,42.6,86,30.19,10.0,Calm,Calm,-,N/A,,Clear,0,2012-11-08 10:55:00
5:15 AM,46.4,41.9,84,30.20,10.0,Calm,Calm,-,N/A,,Clear,0,2012-11-08 11:15:00
5:55 AM,45.5,42.6,90,30.21,10.0,Calm,Calm,-,N/A,,Clear,0,2012-11-08 11:55:00
6:15 AM,45.3,42.6,90,30.21,10.0,Calm,Calm,-,N/A,,Clear,0,2012-11-08 12:15:00
6:55 AM,46.4,43.0,88,30.22,10.0,ENE,3.5,-,N/A,,Clear,60,2012-11-08 12:55:00
7:15 AM,48.2,44.6,87,30.23,10.0,Calm,Calm,-,N/A,,Clear,0,2012-11-08 13:15:00
7:35 AM,50.5,46.0,85,30.24,10.0,Calm,Calm,-,N/A,,Clear,0,2012-11-08 13:35:00
7:55 AM,53.8,46.6,77,30.25,10.0,East,4.6,-,N/A,,Clear,90,2012-11-08 13:55:00
8:15 AM,55.4,46.2,71,30.26,10.0,East,8.1,-,N/A,,Clear,100,2012-11-08 14:15:00
8:35 AM,56.3,46.6,70,30.26,10.0,East,9.2,-,N/A,,Clear,100,2012-11-08 14:35:00
8:55 AM,57.7,46.8,67,30.26,10.0,East,8.1,-,N/A,,Clear,90,2012-11-08 14:55:00
9:15 AM,59.5,46.2,61,30.26,10.0,East,9.2,-,N/A,,Clear,100,2012-11-08 15:15:00
9:35 AM,60.6,45.9,58,30.27,10.0,East,4.6,-,N/A,,Clear,90,2012-11-08 15:35:00
9:55 AM,61.5,45.3,55,30.27,10.0,ESE,5.8,-,N/A,,Clear,110,2012-11-08 15:55:00
10:35 AM,63.9,45.5,51,30.26,10.0,East,6.9,-,N/A,,Clear,90,2012-11-08 16:35:00
10:55 AM,65.3,45.0,48,30.26,10.0,East,5.8,-,N/A,,Clear,100,2012-11-08 16:55:00
11:15 AM,65.7,43.5,45,30.24,10.0,ENE,5.8,-,N/A,,Clear,60,2012-11-08 17:15:00
11:35 AM,66.7,43.0,42,30.24,10.0,East,6.9,-,N/A,,Clear,80,2012-11-08 17:35:00
11:55 AM,67.1,42.4,41,30.23,10.0,East,4.6,-,N/A,,Clear,80,2012-11-08 17:55:00
12:15 PM,67.6,42.4,40,30.22,10.0,Calm,Calm,-,N/A,,Clear,0,2012-11-08 18:15:00
12:35 PM,68.5,43.2,40,30.21,10.0,East,3.5,-,N/A,,Clear,90,2012-11-08 18:35:00
12:55 PM,69.1,42.3,38,30.19,10.0,East,4.6,-,N/A,,Clear,80,2012-11-08 18:55:00
1:15 PM,69.8,43.3,38,30.19,10.0,ENE,5.8,-,N/A,,Clear,70,2012-11-08 19:15:00
1:35 PM,70.0,44.1,39,30.18,10.0,ENE,3.5,-,N/A,,Clear,70,2012-11-08 19:35:00
1:55 PM,70.7,45.1,40,30.17,10.0,East,4.6,-,N/A,,Clear,80,2012-11-08 19:55:00
2:15 PM,70.9,44.4,39,30.17,10.0,East,5.8,-,N/A,,Clear,90,2012-11-08 20:15:00
2:35 PM,71.1,43.9,38,30.16,10.0,ESE,5.8,-,N/A,,Clear,110,2012-11-08 20:35:00
2:55 PM,70.7,44.2,39,30.16,10.0,East,4.6,-,N/A,,Clear,80,2012-11-08 20:55:00
3:15 PM,70.3,44.2,39,30.16,10.0,Calm,Calm,-,N/A,,Clear,0,2012-11-08 21:15:00
3:35 PM,70.7,44.4,39,30.16,10.0,ENE,4.6,-,N/A,,Clear,70,2012-11-08 21:35:00
3:55 PM,70.2,44.1,39,30.16,10.0,Calm,Calm,-,N/A,,Clear,0,2012-11-08 21:55:00
4:15 PM,69.8,45.1,41,30.17,10.0,East,3.5,-,N/A,,Clear,90,2012-11-08 22:15:00
4:35 PM,68.4,47.3,47,30.16,10.0,Calm,Calm,-,N/A,,Clear,0,2012-11-08 22:35:00
4:55 PM,66.9,48.2,51,30.17,10.0,SSE,4.6,-,N/A,,Clear,160,2012-11-08 22:55:00
5:15 PM,62.6,50.4,64,30.17,10.0,South,4.6,-,N/A,,Clear,170,2012-11-08 23:15:00
5:35 PM,61.9,50.5,66,30.17,10.0,SSE,3.5,-,N/A,,Clear,160,2012-11-08 23:35:00
5:55 PM,60.3,51.1,72,30.17,10.0,Calm,Calm,-,N/A,,Clear,0,2012-11-08 23:55:00
6:15 PM,57.4,51.1,79,30.18,10.0,Calm,Calm,-,N/A,,Clear,0,2012-11-09 00:15:00
6:35 PM,56.8,51.3,82,30.18,10.0,Calm,Calm,-,N/A,,Clear,0,2012-11-09 00:35:00
6:55 PM,55.4,51.8,88,30.18,10.0,Calm,Calm,-,N/A,,Clear,0,2012-11-09 00:55:00
7:15 PM,54.0,50.9,89,30.19,10.0,Calm,Calm,-,N/A,,Clear,0,2012-11-09 01:15:00
7:35 PM,53.2,51.6,94,30.19,10.0,Calm,Calm,-,N/A,,Clear,0,2012-11-09 01:35:00
7:55 PM,52.3,51.4,97,30.19,10.0,Calm,Calm,-,N/A,,Clear,0,2012-11-09 01:55:00
8:15 PM,52.3,51.8,98,30.19,10.0,Calm,Calm,-,N/A,,Clear,0,2012-11-09 02:15:00
8:35 PM,51.4,51.4,100,30.20,10.0,Calm,Calm,-,N/A,,Clear,0,2012-11-09 02:35:00
8:55 PM,50.9,50.9,100,30.20,10.0,Calm,Calm,-,N/A,,Clear,0,2012-11-09 02:55:00
9:15 PM,51.4,51.4,100,30.20,10.0,Calm,Calm,-,N/A,,Clear,0,2012-11-09 03:15:00
9:35 PM,52.0,52.0,100,30.20,10.0,Calm,Calm,-,N/A,,Clear,0,2012-11-09 03:35:00
9:55 PM,50.7,50.7,100,30.20,10.0,Calm,Calm,-,N/A,,Clear,0,2012-11-09 03:55:00
10:15 PM,51.4,51.4,100,30.20,10.0,ESE,4.6,-,N/A,,Clear,110,2012-11-09 04:15:00
10:35 PM,54.5,50.9,88,30.19,10.0,ESE,5.8,-,N/A,,Clear,110,2012-11-09 04:35:00
10:55 PM,55.0,51.3,87,30.18,10.0,ESE,5.8,-,N/A,,Clear,110,2012-11-09 04:55:00
11:15 PM,55.2,51.3,87,30.18,10.0,ESE,5.8,-,N/A,,Clear,120,2012-11-09 05:15:00
11:35 PM,55.4,51.3,86,30.19,10.0,ESE,4.6,-,N/A,,Clear,120,2012-11-09 05:35:00
11:55 PM,54.5,51.1,88,30.18,10.0,ESE,5.8,-,N/A,,Clear,110,2012-11-09 05:55:00